Date,TemperatureHighF,TemperatureAvgF,TemperatureLowF,DewpointHighF,DewpointAvgF,DewpointLowF,HumidityHigh,HumidityAvg,HumidityLow,PressureMaxIn,PressureMinIn,WindSpeedMaxMPH,WindSpeedAvgMPH,GustSpeedMaxMPH,PrecipitationSumIn
2013-1-1,18.6,8.2,-6.3,16.5,4.9,-9.9,92,86,82,30.29,29.85,38,6,38,0.00
2013-1-2,21.1,13.6,5.3,19.0,10.1,1.9,92,85,77,30.34,29.84,39,7,39,0.00
2013-1-3,27.7,17.3,6.2,20.8,12.3,2.7,88,81,73,30.33,29.86,48,12,49,0.00
2013-1-4,29.4,22.1,10.0,21.5,15.9,5.3,86,77,71,30.19,29.92,24,7,24,0.00
2013-1-5,14.8,11.1,8.0,11.1,6.1,3.6,87,80,66,30.19,30.12,20,3,20,0.00
2013-1-6,20.2,15.5,9.5,18.0,12.5,6.7,91,88,82,30.26,29.64,64,9,64,0.00
2013-1-7,35.4,28.3,19.0,29.8,23.4,15.9,92,82,72,29.84,29.53,56,12,56,0.00
2013-1-8,34.7,26.0,13.4,32.4,22.6,10.3,94,87,79,29.83,29.53,56,14,56,0.00
2013-1-9,27.8,25.3,22.0,24.2,20.2,17.1,89,81,71,30.20,29.60,63,14,63,0.00
2013-1-10,39.2,33.2,24.8,32.7,28.5,20.1,91,83,77,30.01,29.70,54,10,54,0.08
2013-1-12,32.0,-1.8,-7.2,32.0,-6.0,-10.9,85,81,79,30.28,0.00,42,9,42,0.00
2013-1-13,5.7,-1.7,-11.7,4.1,-5.6,-15.6,96,83,79,30.32,30.22,28,5,28,0.00
2013-1-14,6.3,0.9,-5.9,3.7,-3.3,-9.7,94,82,75,30.37,30.24,16,4,16,0.00
2013-1-15,26.2,8.0,-6.2,24.8,4.4,-9.8,95,85,75,30.24,29.53,54,9,54,0.00
2013-1-16,21.8,-0.2,-7.8,18.7,-7.5,-17.1,88,71,57,30.40,29.62,50,10,50,0.00
2013-1-17,2.2,-1.7,-4.6,-4.2,-7.2,-12.2,92,77,67,30.54,30.26,20,3,22,0.00
2013-1-18,10.8,7.1,0.4,7.9,3.5,-4.8,96,85,78,30.26,29.82,24,6,24,0.00
2013-1-19,11.8,2.6,-7.3,9.1,-1.7,-11.4,89,82,72,30.46,29.77,52,12,53,0.00
2013-1-20,-3.9,-8.4,-16.1,-9.1,-13.4,-21.4,84,78,69,30.51,30.43,45,7,45,0.00
2013-1-21,-7.7,-12.3,-17.2,-14.6,-18.0,-22.2,81,75,69,30.47,30.40,44,7,44,0.00
2013-1-22,-1.6,-10.4,-18.0,-6.8,-15.5,-22.3,82,78,69,30.45,30.25,20,4,20,0.00
2013-1-23,1.8,-10.8,-17.4,-4.0,-18.5,-21.7,80,68,59,30.84,30.24,47,8,47,0.00
2013-1-24,2.9,-8.7,-19.5,-0.4,-13.3,-24.2,92,80,71,30.84,30.08,42,8,42,0.00
2013-1-25,3.6,-4.2,-10.6,0.6,-8.3,-14.3,87,82,76,30.45,30.05,20,6,23,0.00
2013-1-26,11.8,2.2,-12.1,5.4,-2.4,-16.0,96,81,73,30.41,30.14,36,6,36,0.00
2013-1-27,20.9,11.2,0.6,14.5,7.3,-2.6,89,84,75,30.15,29.90,23,3,23,0.00
2013-1-28,21.2,16.3,10.1,18.9,13.5,7.7,93,89,83,29.92,29.82,18,2,18,0.00
2013-1-29,21.7,16.1,4.2,19.9,12.6,-0.6,93,86,78,30.11,29.80,38,8,38,0.00
2013-1-30,8.4,4.3,-3.4,4.8,-0.0,-7.8,92,82,76,30.10,30.00,32,9,32,0.00
2013-1-31,-3.4,-10.3,-16.6,-7.6,-15.7,-21.5,82,76,71,30.42,30.09,44,11,44,0.00
2013-2-1,-5.4,-13.5,-22.2,-10.7,-18.7,-26.7,82,77,68,30.39,30.23,16,3,16,0.00
2013-2-2,6.1,-5.3,-16.4,2.3,-9.4,-20.5,96,82,77,30.35,30.11,28,5,28,0.00
2013-2-3,6.9,2.4,-3.2,2.5,-2.8,-6.9,85,79,71,30.23,30.16,27,4,27,0.00
2013-2-4,13.0,4.5,-9.3,10.3,1.1,-13.1,92,86,79,30.17,29.72,35,6,35,0.00
2013-2-5,8.6,-0.5,-6.2,5.7,-4.6,-10.2,88,83,75,30.19,29.79,21,6,21,0.00
2013-2-6,32.0,9.8,7.7,32.0,5.9,3.9,92,82,82,30.35,30.29,14,5,14,0.01
2013-2-7,8.1,5.1,2.8,4.3,1.3,-0.9,92,84,80,30.44,30.35,21,4,21,0.00
2013-5-14,76.2,66.9,55.2,57.1,48.8,42.2,71,53,30,29.69,29.31,81,24,81,0.00
2013-5-15,70.8,60.5,46.8,46.5,41.6,33.5,84,53,31,29.92,29.69,38,8,38,0.00
2013-5-16,72.0,60.1,50.0,43.9,33.9,28.9,60,39,26,30.03,29.92,26,5,26,0.00
2013-5-17,67.2,57.1,51.5,55.6,44.6,37.8,87,64,45,30.04,29.95,38,6,38,0.09
2013-5-18,65.1,57.5,54.4,54.7,49.6,44.9,95,76,55,29.95,29.90,25,4,25,0.14
2013-5-19,61.4,56.7,52.5,55.7,53.6,50.5,95,90,78,29.95,29.86,58,16,58,0.26
2013-5-20,58.5,54.4,48.5,52.8,49.6,44.2,93,84,75,29.96,29.84,76,30,76,0.56
2013-5-21,71.7,54.0,48.1,44.6,36.6,18.0,82,57,14,30.02,29.94,68,18,68,0.01
2013-5-22,69.3,54.1,45.5,49.8,38.9,28.3,77,58,33,30.28,30.01,56,9,56,0.00
2013-5-23,67.4,58.8,45.8,38.0,30.2,23.2,59,36,19,30.45,30.26,29,7,29,35.40
2013-5-24,70.0,53.7,43.6,47.3,35.1,29.1,68,52,25,30.34,30.16,46,5,46,0.00
2013-5-25,65.4,59.2,54.5,52.8,48.9,44.8,81,69,60,30.23,30.16,46,12,46,0.00
2013-5-26,71.5,63.5,56.6,50.8,48.0,44.0,75,58,38,30.21,30.05,38,11,40,0.00
2013-5-27,75.7,65.1,57.3,55.2,49.9,46.5,71,59,39,30.05,29.76,35,7,38,0.00
2013-5-28,67.7,61.4,58.4,60.3,54.9,52.8,95,80,68,29.77,29.56,29,9,31,0.19
2013-5-29,68.1,60.6,54.1,59.6,55.4,51.8,92,84,72,29.76,29.57,22,9,30,0.01
2013-5-30,62.0,58.2,55.3,58.5,56.2,52.6,98,93,87,29.76,29.60,43,18,52,0.68
2013-5-31,56.0,54.3,53.4,54.0,52.5,51.9,96,94,91,29.62,29.54,38,21,55,0.61
2013-6-1,58.3,52.0,47.6,45.4,43.2,40.0,86,73,51,30.14,29.86,29,18,56,0.00
2013-6-2,62.4,52.0,40.1,41.0,34.2,24.2,89,55,27,30.20,30.10,18,9,36,0.00
2013-6-3,68.6,55.9,39.1,37.6,33.0,26.4,90,48,24,30.15,30.06,16,7,34,0.00
2013-6-4,72.8,62.0,50.7,43.1,37.6,31.9,62,42,25,30.15,30.09,28,10,37,0.00
2013-6-5,75.7,67.5,46.4,46.4,41.0,36.9,79,40,27,30.16,30.06,28,5,28,0.00
2013-6-6,75.8,65.8,32.0,49.5,44.8,32.0,84,50,29,30.10,29.98,26,7,26,0.00
2013-6-7,75.3,63.7,56.7,55.3,50.2,41.8,83,63,38,29.99,29.85,48,8,48,0.03
2013-6-8,76.5,65.0,50.6,53.7,49.3,45.8,90,60,36,29.91,29.85,44,11,44,0.00
2013-6-9,69.2,62.1,55.8,60.0,54.2,48.0,88,76,59,29.91,29.86,31,6,31,0.03
2013-6-10,73.8,63.4,55.6,61.7,55.7,51.5,92,77,52,29.86,29.69,56,7,56,0.10
2013-6-11,75.9,65.5,52.3,54.5,50.9,48.0,91,62,40,29.91,29.81,35,8,35,0.00
2013-6-12,60.2,57.0,55.1,52.4,51.9,51.1,88,83,73,29.94,29.91,0,0,0,0.00
2013-6-13,79.9,68.1,53.4,56.5,49.2,42.3,95,56,27,30.19,30.04,15,7,31,0.00
2013-6-14,77.7,68.4,59.8,62.7,57.4,45.0,92,69,49,30.04,29.73,42,10,42,0.20
2013-6-15,77.6,65.9,56.7,62.4,52.7,44.7,92,65,32,29.81,29.70,52,14,52,0.00
2013-6-16,71.3,64.6,55.2,58.0,54.3,51.7,91,70,56,29.89,29.75,35,8,35,0.00
2013-6-17,64.3,63.8,63.3,58.0,57.8,57.6,82,81,80,29.90,29.88,14,8,18,0.00
2013-6-18,78.5,66.6,51.1,58.5,53.7,47.4,88,65,42,30.11,29.93,13,4,29,0.00
2013-6-19,84.1,71.3,55.0,59.3,54.6,51.4,92,59,35,29.95,29.89,19,6,34,0.00
2013-6-20,80.4,71.0,61.7,66.8,60.8,53.8,92,71,57,29.95,29.87,22,10,47,0.24
2013-6-21,74.1,69.3,63.5,65.2,63.2,60.3,91,81,73,30.01,29.88,13,6,32,0.00
2013-6-22,80.1,72.3,64.9,68.0,64.4,62.1,92,77,61,29.97,29.79,32,10,32,0.00
2013-6-23,75.0,64.3,58.7,67.1,61.7,56.0,97,92,75,29.81,29.50,57,10,57,0.86
2013-6-24,77.4,63.9,58.2,61.0,57.1,55.0,92,80,52,29.71,29.64,39,14,39,0.00
2013-6-25,89.4,78.5,61.3,70.4,64.3,58.7,94,64,46,29.74,29.58,56,6,56,0.68
2013-6-26,80.8,69.3,63.8,67.0,64.2,62.3,97,85,60,29.67,29.58,36,10,36,0.38
2013-7-6,82.0,77.2,32.0,65.0,62.0,32.0,80,59,46,29.80,0.00,25,10,25,0.00
2013-7-7,79.7,72.7,66.7,66.5,63.1,59.5,93,73,51,29.93,29.76,34,10,34,0.00
2013-7-8,85.0,73.1,59.9,67.6,62.1,58.1,95,71,43,29.98,29.85,32,6,32,0.00
2013-7-9,71.1,63.9,59.5,62.7,53.8,49.5,83,70,61,29.93,29.88,34,12,34,0.03
2013-8-23,73.7,67.6,32.0,61.5,57.0,32.0,66,56,64,29.88,0.00,21,8,21,0.03